,,PressureMeas_1m,,PRMeasQMR101_1,,RHStat155_1m_1,,SRMeasQMS101R_1m,,TAStat155_1m_1,,GenWind_1,,GenWind_1,
2017-09-03, 07:00:06,VALID,916.717,VALID,0.2,VALID,93.477,VALID,5.35,VALID,20.862,VALID,103.0,VALID,2.166,
2017-09-03, 07:01:06,VALID,916.732,VALID,0.2,VALID,94.222,VALID,5.678,VALID,20.784,VALID,107.0,VALID,2.358,
2017-09-03, 07:02:06,VALID,916.752,VALID,0.2,VALID,94.329,VALID,5.927,VALID,20.716,VALID,107.0,VALID,2.953,
2017-09-03, 07:03:06,VALID,916.78,VALID,0.2,VALID,94.375,VALID,6.167,VALID,20.713,VALID,91.0,VALID,2.134,
2017-09-03, 07:04:06,VALID,916.822,VALID,0.2,VALID,95.083,VALID,6.383,VALID,20.638,VALID,94.0,VALID,1.942,
2017-09-03, 07:05:06,VALID,916.846,VALID,0.2,VALID,95.363,VALID,6.64,VALID,20.552,VALID,118.0,VALID,2.529,
2017-09-03, 07:06:06,VALID,916.859,VALID,0.2,VALID,95.433,VALID,6.855,VALID,20.528,VALID,128.0,VALID,1.988,
2017-09-03, 07:07:06,VALID,916.856,VALID,0.2,VALID,95.634,VALID,7.141,VALID,20.494,VALID,130.0,VALID,2.166,
2017-09-03, 07:08:06,VALID,916.864,VALID,0.0,VALID,95.746,VALID,7.387,VALID,20.457,VALID,129.0,VALID,1.912,
2017-09-03, 07:09:06,VALID,916.861,VALID,0.2,VALID,96.041,VALID,7.573,VALID,20.448,VALID,129.0,VALID,1.186,
2017-09-03, 07:10:06,VALID,916.86,VALID,0.0,VALID,96.315,VALID,7.768,VALID,20.416,VALID,133.0,VALID,1.566,
2017-09-03, 07:11:06,VALID,916.861,VALID,0.2,VALID,96.447,VALID,7.997,VALID,20.391,VALID,126.0,VALID,1.45,
2017-09-03, 07:12:06,VALID,916.858,VALID,0.0,VALID,96.616,VALID,8.159,VALID,20.369,VALID,128.0,VALID,1.304,
2017-09-03, 07:13:06,VALID,916.855,VALID,0.2,VALID,96.727,VALID,8.226,VALID,20.358,VALID,145.0,VALID,1.323,
2017-09-03, 07:14:06,VALID,916.882,VALID,0.4,VALID,96.962,VALID,8.483,VALID,20.352,VALID,136.0,VALID,1.916,
2017-09-03, 07:15:06,VALID,916.879,VALID,0.0,VALID,97.127,VALID,8.732,VALID,20.325,VALID,121.0,VALID,1.911,
2017-09-03, 07:16:06,VALID,916.885,VALID,0.2,VALID,97.259,VALID,8.964,VALID,20.302,VALID,138.0,VALID,1.832,
2017-09-03, 07:17:06,VALID,916.873,VALID,0.2,VALID,97.347,VALID,9.226,VALID,20.282,VALID,143.0,VALID,2.362,
2017-09-03, 07:18:06,VALID,916.874,VALID,0.0,VALID,97.271,VALID,9.452,VALID,20.242,VALID,150.0,VALID,2.11,
2017-09-03, 07:19:06,VALID,916.894,VALID,0.2,VALID,97.318,VALID,9.731,VALID,20.247,VALID,151.0,VALID,1.981,
2017-09-03, 07:20:06,VALID,916.902,VALID,0.2,VALID,97.384,VALID,10.068,VALID,20.246,VALID,154.0,VALID,1.631,
2017-09-03, 07:21:06,VALID,916.903,VALID,0.0,VALID,97.497,VALID,10.664,VALID,20.259,VALID,150.0,VALID,1.483,
2017-09-03, 07:22:06,VALID,916.919,VALID,0.2,VALID,97.575,VALID,11.403,VALID,20.239,VALID,147.0,VALID,2.335,
2017-09-03, 07:23:06,VALID,916.927,VALID,0.2,VALID,97.535,VALID,12.308,VALID,20.203,VALID,141.0,VALID,1.948,
2017-09-03, 07:24:06,VALID,916.933,VALID,0.0,VALID,97.449,VALID,13.586,VALID,20.174,VALID,144.0,VALID,2.623,
2017-09-03, 07:25:06,VALID,916.926,VALID,0.2,VALID,97.539,VALID,15.224,VALID,20.19,VALID,141.0,VALID,2.168,
2017-09-03, 07:26:06,VALID,916.946,VALID,0.0,VALID,97.655,VALID,17.103,VALID,20.192,VALID,153.0,VALID,2.396,
2017-09-03, 07:27:06,VALID,916.953,VALID,0.2,VALID,97.578,VALID,19.447,VALID,20.17,VALID,141.0,VALID,2.19,
2017-09-03, 07:28:06,VALID,916.964,VALID,0.0,VALID,97.619,VALID,22.223,VALID,20.179,VALID,135.0,VALID,1.771,
2017-09-03, 07:29:06,VALID,916.979,VALID,0.2,VALID,97.639,VALID,25.237,VALID,20.187,VALID,132.0,VALID,1.438,
2017-09-03, 07:30:06,VALID,916.986,VALID,0.0,VALID,97.669,VALID,28.354,VALID,20.196,VALID,130.0,VALID,1.577,
2017-09-03, 07:31:06,VALID,917.011,VALID,0.0,VALID,97.677,VALID,31.722,VALID,20.208,VALID,121.0,VALID,1.556,
2017-09-03, 07:32:06,VALID,917.033,VALID,0.0,VALID,97.596,VALID,35.279,VALID,20.205,VALID,112.0,VALID,2.444,
2017-09-03, 07:33:06,VALID,917.068,VALID,0.0,VALID,97.331,VALID,38.44,VALID,20.221,VALID,100.0,VALID,1.825,
2017-09-03, 07:34:06,VALID,917.116,VALID,0.0,VALID,97.328,VALID,40.86,VALID,20.25,VALID,95.0,VALID,1.565,
2017-09-03, 07:35:06,VALID,917.138,VALID,0.0,VALID,97.31,VALID,42.536,VALID,20.252,VALID,104.0,VALID,1.483,
2017-09-03, 07:36:06,VALID,917.165,VALID,0.0,VALID,97.265,VALID,43.091,VALID,20.258,VALID,102.0,VALID,1.352,
2017-09-03, 07:37:06,VALID,917.196,VALID,0.0,VALID,97.234,VALID,42.684,VALID,20.274,VALID,95.0,VALID,1.14,
2017-09-03, 07:38:06,VALID,917.223,VALID,0.2,VALID,97.199,VALID,45.164,VALID,20.273,VALID,90.0,VALID,1.328,
2017-09-03, 07:39:06,VALID,917.248,VALID,0.0,VALID,97.227,VALID,45.739,VALID,20.279,VALID,94.0,VALID,1.157,
2017-09-03, 07:40:06,VALID,917.273,VALID,0.0,VALID,97.265,VALID,44.731,VALID,20.282,VALID,128.0,VALID,1.022,
2017-09-03, 07:41:06,VALID,917.29,VALID,0.0,VALID,97.311,VALID,42.212,VALID,20.294,VALID,161.0,VALID,1.118,
2017-09-03, 07:42:06,VALID,917.35,VALID,0.0,VALID,97.054,VALID,40.401,VALID,20.287,VALID,143.0,VALID,1.457,
2017-09-03, 07:43:06,VALID,917.366,VALID,0.0,VALID,97.109,VALID,38.941,VALID,20.323,VALID,147.0,VALID,1.246,
2017-09-03, 07:44:06,VALID,917.366,VALID,0.0,VALID,97.256,VALID,35.705,VALID,20.354,VALID,145.0,VALID,0.908,
2017-09-03, 07:45:06,VALID,917.385,VALID,0.0,VALID,97.223,VALID,33.367,VALID,20.335,VALID,142.0,VALID,1.207,
2017-09-03, 07:46:06,VALID,917.37,VALID,0.0,VALID,97.135,VALID,34.919,VALID,20.341,VALID,159.0,VALID,0.808,
2017-09-03, 07:47:06,VALID,917.374,VALID,0.0,VALID,97.245,VALID,37.67,VALID,20.348,VALID,145.0,VALID,0.791,
2017-09-03, 07:48:06,VALID,917.372,VALID,0.0,VALID,97.146,VALID,40.367,VALID,20.335,VALID,141.0,VALID,0.557,
2017-09-03, 07:49:06,VALID,917.379,VALID,0.0,VALID,97.103,VALID,43.672,VALID,20.327,VALID,116.0,VALID,0.499,
2017-09-03, 07:50:06,VALID,917.39,VALID,0.0,VALID,97.073,VALID,46.732,VALID,20.328,VALID,153.0,VALID,0.743,
2017-09-03, 07:51:06,VALID,917.379,VALID,0.0,VALID,97.223,VALID,50.483,VALID,20.362,VALID,140.0,VALID,0.851,
2017-09-03, 07:52:06,VALID,917.391,VALID,0.0,VALID,97.114,VALID,54.241,VALID,20.361,VALID,107.0,VALID,1.571,
2017-09-03, 07:53:06,VALID,917.392,VALID,0.0,VALID,96.807,VALID,57.279,VALID,20.341,VALID,104.0,VALID,1.091,
2017-09-03, 07:54:06,VALID,917.394,VALID,0.0,VALID,96.616,VALID,59.482,VALID,20.343,VALID,93.0,VALID,1.001,
2017-09-03, 07:55:06,VALID,917.378,VALID,0.0,VALID,96.171,VALID,60.605,VALID,20.345,VALID,92.0,VALID,1.22,
2017-09-03, 07:56:06,VALID,917.397,VALID,0.2,VALID,96.419,VALID,60.67,VALID,20.42,VALID,118.0,VALID,0.921,
2017-09-03, 07:57:06,VALID,917.409,VALID,0.0,VALID,96.73,VALID,60.053,VALID,20.444,VALID,137.0,VALID,0.911,
2017-09-03, 07:58:06,VALID,917.431,VALID,0.2,VALID,96.817,VALID,59.239,VALID,20.431,VALID,134.0,VALID,1.596,
2017-09-03, 07:59:06,VALID,917.432,VALID,0.0,VALID,96.636,VALID,60.848,VALID,20.404,VALID,150.0,VALID,1.412,
2017-09-03, 08:00:06,VALID,917.432,VALID,0.0,VALID,96.844,VALID,63.908,VALID,20.419,VALID,158.0,VALID,0.915,
2017-09-03, 08:01:06,VALID,917.441,VALID,0.2,VALID,97.025,VALID,69.704,VALID,20.419,VALID,132.0,VALID,0.917,
2017-09-03, 08:02:06,VALID,917.428,VALID,0.0,VALID,97.023,VALID,79.411,VALID,20.403,VALID,132.0,VALID,1.38,
2017-09-03, 08:03:06,VALID,917.413,VALID,0.2,VALID,97.105,VALID,88.636,VALID,20.427,VALID,155.0,VALID,1.141,
2017-09-03, 08:04:06,VALID,917.384,VALID,0.0,VALID,97.285,VALID,98.272,VALID,20.465,VALID,155.0,VALID,1.154,
2017-09-03, 08:05:06,VALID,917.366,VALID,0.0,VALID,97.246,VALID,106.261,VALID,20.462,VALID,148.0,VALID,1.368,
2017-09-03, 08:06:06,VALID,917.353,VALID,0.0,VALID,96.964,VALID,110.751,VALID,20.436,VALID,138.0,VALID,2.212,
2017-09-03, 08:07:06,VALID,917.36,VALID,0.2,VALID,96.921,VALID,114.125,VALID,20.482,VALID,157.0,VALID,1.981,
2017-09-03, 08:08:06,VALID,917.359,VALID,0.0,VALID,96.701,VALID,124.057,VALID,20.478,VALID,141.0,VALID,2.152,
2017-09-03, 08:09:06,VALID,917.36,VALID,0.0,VALID,96.588,VALID,158.171,VALID,20.486,VALID,152.0,VALID,1.725,
2017-09-03, 08:10:06,VALID,917.369,VALID,0.0,VALID,96.796,VALID,186.299,VALID,20.523,VALID,167.0,VALID,1.846,
2017-09-03, 08:11:06,VALID,917.404,VALID,0.0,VALID,96.685,VALID,185.669,VALID,20.509,VALID,149.0,VALID,3.056,
2017-09-03, 08:12:06,VALID,917.423,VALID,0.2,VALID,96.57,VALID,193.105,VALID,20.513,VALID,127.0,VALID,2.356,
2017-09-03, 08:13:06,VALID,917.433,VALID,0.0,VALID,96.562,VALID,195.037,VALID,20.56,VALID,144.0,VALID,2.154,
2017-09-03, 08:14:06,VALID,917.447,VALID,0.0,VALID,96.12,VALID,198.955,VALID,20.557,VALID,132.0,VALID,2.003,
2017-09-03, 08:15:06,VALID,917.45,VALID,0.0,VALID,96.37,VALID,200.496,VALID,20.596,VALID,148.0,VALID,2.028,
2017-09-03, 08:16:06,VALID,917.451,VALID,0.0,VALID,96.338,VALID,202.692,VALID,20.619,VALID,138.0,VALID,1.716,
2017-09-03, 08:17:06,VALID,917.454,VALID,0.0,VALID,96.357,VALID,219.724,VALID,20.647,VALID,147.0,VALID,0.945,
2017-09-03, 08:18:06,VALID,917.472,VALID,0.0,VALID,96.877,VALID,219.042,VALID,20.748,VALID,143.0,VALID,0.85,
2017-09-03, 08:19:06,VALID,917.503,VALID,0.0,VALID,96.712,VALID,191.547,VALID,20.733,VALID,139.0,VALID,0.936,
2017-09-03, 08:20:06,VALID,917.539,VALID,0.0,VALID,96.991,VALID,194.641,VALID,20.822,VALID,130.0,VALID,1.09,
2017-09-03, 08:21:06,VALID,917.563,VALID,0.0,VALID,96.767,VALID,219.498,VALID,20.807,VALID,127.0,VALID,1.407,
2017-09-03, 08:22:06,VALID,917.565,VALID,0.0,VALID,96.42,VALID,226.368,VALID,20.815,VALID,130.0,VALID,1.039,
2017-09-03, 08:23:06,VALID,917.572,VALID,0.0,VALID,96.398,VALID,223.465,VALID,20.845,VALID,158.0,VALID,0.533,
2017-09-03, 08:24:06,VALID,917.579,VALID,0.0,VALID,96.445,VALID,226.388,VALID,20.865,VALID,134.0,VALID,0.373,
2017-09-03, 08:25:06,VALID,917.579,VALID,0.0,VALID,96.629,VALID,234.366,VALID,20.899,VALID,142.0,VALID,0.591,
2017-09-03, 08:26:06,VALID,917.58,VALID,0.0,VALID,96.722,VALID,249.378,VALID,20.937,VALID,158.0,VALID,0.822,
2017-09-03, 08:27:06,VALID,917.58,VALID,0.0,VALID,96.23,VALID,262.22,VALID,20.924,VALID,178.0,VALID,0.282,
2017-09-03, 08:28:06,VALID,917.596,VALID,0.0,VALID,97.181,VALID,271.376,VALID,21.121,VALID,170.0,VALID,0.293,
2017-09-03, 08:29:06,VALID,917.618,VALID,0.0,VALID,96.822,VALID,274.59,VALID,21.106,VALID,187.0,VALID,0.451,
2017-09-03, 08:30:06,VALID,917.656,VALID,0.0,VALID,96.491,VALID,273.628,VALID,21.107,VALID,172.0,VALID,0.424,
2017-09-03, 08:31:06,VALID,917.68,VALID,0.0,VALID,96.53,VALID,267.545,VALID,21.157,VALID,166.0,VALID,0.237,
2017-09-03, 08:32:06,VALID,917.72,VALID,0.0,VALID,96.485,VALID,263.595,VALID,21.206,VALID,137.0,VALID,0.201,
2017-09-03, 08:33:06,VALID,917.765,VALID,0.0,VALID,96.357,VALID,257.627,VALID,21.223,VALID,100.0,VALID,0.863,
2017-09-03, 08:34:06,VALID,917.806,VALID,0.0,VALID,95.181,VALID,240.515,VALID,21.168,VALID,134.0,VALID,0.816,
2017-09-03, 08:35:06,VALID,917.833,VALID,0.0,VALID,95.811,VALID,233.478,VALID,21.254,VALID,167.0,VALID,0.193,
2017-09-03, 08:36:06,VALID,917.855,VALID,0.0,VALID,96.033,VALID,245.774,VALID,21.29,VALID,167.0,VALID,0.209,
2017-09-03, 08:37:06,VALID,917.874,VALID,0.0,VALID,95.533,VALID,275.979,VALID,21.255,VALID,138.0,VALID,0.305,
2017-09-03, 08:38:06,VALID,917.884,VALID,0.0,VALID,95.788,VALID,291.396,VALID,21.314,VALID,138.0,VALID,0.048,
